Change the Weather History Date:

Wednesday, August 7, 2013

  Actual Average (KMAF) Record (KMAF)
Temperature  
Mean Temperature 88 °F 82 °F  
Max Temperature 101 °F 95 °F 104 °F (2003)
Min Temperature 77 °F 70 °F 61 °F (1936)
Cooling Degree Days 24 17  
Month to date cooling degree days 119  
Year to date cooling degree days 1501  
Since 1 June cooling degree days 1112  
Growing Degree Days 38 (Base 50)    
Moisture  
Dew Point 56 °F    
Average Humidity 36    
Maximum Humidity 62    
Minimum Humidity 19    
Precipitation  
Precipitation 0.00 in 0.06 in 1.20 in (1984)
Month to date precipitation 0.42  
Year to date precipitation 8.30  
Sea Level Pressure  
Sea Level Pressure 29.94 in    
Wind  
Wind Speed 8 mph (WSW)    
Max Wind Speed 24 mph    
Max Gust Speed 38 mph    
Visibility 10 miles    
Events Thunderstorm    
T = Trace of Precipitation, MM = Missing Value Source: NWS Daily Summary

Daily Weather History Graph

Daily Weather History Graph

Search for Another Location

Airport or City:

Trip Planner

Search our weather history database for the weather conditions in past years. The results will help you decide how hot, cold, wet, or windy it might be!

Date:

Astronomy

Aug. 07, 2013 Rise Set
Actual Time 7:07 AM CDT 8:39 PM CDT
Civil Twilight 6:41 AM CDT 9:06 PM CDT
Nautical Twilight 6:10 AM CDT 9:37 PM CDT
Astronomical Twilight 5:37 AM CDT 10:10 PM CDT
Moon 7:51 AM CDT (8/7) 8:56 PM CDT (8/7)
Length of Visible Light 14h 24m
Length of Day
13h 32m
New Moon, 1% of the Moon is Illuminated
Aug 7
New Moon
Aug 14
First Quarter
Aug 20
Full
Aug 28
Last Quarter
Sep 5
New

Hourly Weather History & Observations

Time (CDT) Temp. Heat Index Dew Point Humidity Pressure Visibility Wind Dir Wind Speed Gust Speed Precip Events Conditions
12:15 AM 81.0 °F 81.8 °F 61.2 °F 51% 29.94 in 10.0 mi SSW 11.5 mph - N/A   Clear
12:35 AM 80.6 °F 81.5 °F 60.8 °F 51% 29.94 in 10.0 mi SSW 6.9 mph - N/A   Clear
12:55 AM 80.6 °F 81.4 °F 60.3 °F 50% 29.94 in 10.0 mi SSW 6.9 mph - N/A   Clear
1:15 AM 79.7 °F - 61.0 °F 53% 29.93 in 10.0 mi SW 5.8 mph - N/A   Clear
1:35 AM 79.2 °F - 61.5 °F 55% 29.94 in 10.0 mi Calm Calm - N/A   Clear
1:55 AM 78.4 °F - 62.2 °F 57% 29.94 in 10.0 mi Calm Calm - N/A   Clear
2:15 AM 77.4 °F - 63.3 °F 62% 29.94 in 10.0 mi Calm Calm - N/A   Clear
2:35 AM 77.7 °F - 63.5 °F 61% 29.94 in 10.0 mi Calm Calm - N/A   Clear
2:55 AM 78.1 °F - 62.4 °F 58% 29.94 in 10.0 mi Calm Calm - N/A   Clear
3:15 AM 80.1 °F 80.7 °F 59.0 °F 48% 29.94 in 10.0 mi South 9.2 mph - N/A   Clear
3:35 AM 79.7 °F - 59.2 °F 49% 29.94 in 10.0 mi South 6.9 mph - N/A   Clear
3:55 AM 79.2 °F - 59.4 °F 51% 29.94 in 10.0 mi South 6.9 mph - N/A   Clear
4:15 AM 78.3 °F - 59.5 °F 52% 29.94 in 10.0 mi South 8.1 mph - N/A   Clear
4:35 AM 79.2 °F - 58.1 °F 48% 29.94 in 10.0 mi SSW 10.4 mph - N/A   Clear
4:55 AM 79.7 °F - 57.4 °F 46% 29.94 in 10.0 mi South 12.7 mph - N/A   Clear
5:15 AM 79.9 °F - 57.4 °F 46% 29.94 in 10.0 mi SSW 9.2 mph - N/A   Clear
5:35 AM 81.7 °F 81.3 °F 56.1 °F 41% 29.94 in 10.0 mi SW 9.2 mph - N/A   Scattered Clouds
5:55 AM 81.3 °F 81.2 °F 56.7 °F 43% 29.95 in 10.0 mi SSW 4.6 mph - N/A   Scattered Clouds
6:15 AM 80.1 °F 80.4 °F 57.2 °F 45% 29.95 in 10.0 mi SSW 5.8 mph - N/A   Clear
6:35 AM 80.1 °F 80.3 °F 56.3 °F 44% 29.95 in 10.0 mi SW 8.1 mph - N/A   Clear
6:55 AM 79.7 °F - 57.0 °F 46% 29.95 in 10.0 mi SW 4.6 mph - N/A   Clear
7:15 AM 79.7 °F - 56.8 °F 45% 29.95 in 10.0 mi SW 8.1 mph - N/A   Clear
7:35 AM 79.3 °F - 57.0 °F 46% 29.96 in 10.0 mi SW 9.2 mph - N/A   Clear
7:55 AM 79.9 °F - 57.2 °F 46% 29.96 in 10.0 mi SW 10.4 mph - N/A   Clear
8:15 AM 80.6 °F 80.8 °F 57.7 °F 45% 29.95 in 10.0 mi SW 11.5 mph - N/A   Scattered Clouds
8:35 AM 80.1 °F 80.6 °F 58.1 °F 47% 29.96 in 10.0 mi SW 10.4 mph - N/A   Clear
8:55 AM 80.6 °F 81.0 °F 58.5 °F 47% 29.96 in 10.0 mi SW 10.4 mph - N/A   Clear
9:15 AM 81.7 °F 81.9 °F 59.2 °F 46% 29.96 in 10.0 mi WSW 11.5 mph - N/A   Clear
9:35 AM 84.2 °F 83.7 °F 58.5 °F 41% 29.96 in 10.0 mi WSW 9.2 mph - N/A   Clear
9:55 AM 86.5 °F 85.3 °F 56.8 °F 36% 29.97 in 10.0 mi WSW 11.5 mph - N/A   Clear
10:15 AM 89.6 °F 87.7 °F 54.9 °F 31% 29.97 in 10.0 mi West 11.5 mph - N/A   Clear
10:35 AM 91.9 °F 90.0 °F 55.0 °F 29% 29.97 in 10.0 mi West 12.7 mph - N/A   Clear
10:55 AM 93.0 °F 90.8 °F 54.3 °F 27% 29.97 in 10.0 mi West 9.2 mph - N/A   Clear
11:15 AM 95.0 °F 92.7 °F 53.8 °F 25% 29.97 in 10.0 mi West 11.5 mph 17.3 mph N/A   Clear
11:35 AM 96.1 °F 93.8 °F 53.2 °F 24% 29.97 in 10.0 mi West 10.4 mph - N/A   Clear
11:55 AM 97.2 °F - 52.2 °F 22% 29.97 in 10.0 mi WNW 13.8 mph 17.3 mph N/A   Clear
12:15 PM 97.9 °F - 52.3 °F 22% 29.97 in 10.0 mi WNW 13.8 mph 18.4 mph N/A   Clear
12:35 PM 97.3 °F - 52.7 °F 22% 29.97 in 10.0 mi WNW 11.5 mph - N/A   Clear
12:55 PM 98.8 °F - 52.9 °F 21% 29.96 in 10.0 mi WNW 11.5 mph - N/A   Clear
1:15 PM 98.4 °F - 52.5 °F 21% 29.96 in 10.0 mi NW 8.1 mph - N/A   Clear
1:35 PM 97.5 °F - 51.1 °F 21% 29.96 in 10.0 mi NW 5.8 mph - N/A   Clear
1:55 PM 97.7 °F - 51.8 °F 21% 29.96 in 10.0 mi NNW 5.8 mph - N/A   Clear
2:15 PM 98.1 °F - 52.5 °F 22% 29.96 in 10.0 mi West 8.1 mph - N/A   Clear
2:35 PM 99.3 °F - 51.6 °F 20% 29.94 in 10.0 mi North 13.8 mph 19.6 mph N/A   Clear
2:55 PM 99.7 °F - 51.8 °F 20% 29.94 in 10.0 mi Calm Calm - N/A   Scattered Clouds
3:15 PM 100.2 °F - 51.6 °F 19% 29.94 in 10.0 mi West 10.4 mph - N/A   Mostly Cloudy
3:35 PM 99.3 °F - 51.4 °F 20% 29.93 in 10.0 mi West 9.2 mph - N/A   Scattered Clouds
3:55 PM 95.5 °F 94.1 °F 56.8 °F 27% 29.94 in 4.0 mi West 24.2 mph 38.0 mph N/A   Haze
4:15 PM 95.0 °F 93.7 °F 56.8 °F 28% 29.95 in 7.0 mi West 21.9 mph 31.1 mph N/A Thunderstorm Clear
4:35 PM 94.5 °F 93.3 °F 57.6 °F 29% 29.94 in 10.0 mi WNW 20.7 mph 29.9 mph N/A   Clear
4:55 PM 92.1 °F 90.8 °F 57.0 °F 31% 29.94 in 10.0 mi WNW 20.7 mph 28.8 mph N/A   Clear
5:15 PM 91.8 °F 90.3 °F 57.2 °F 31% 29.94 in 10.0 mi WNW 17.3 mph - N/A   Clear
5:35 PM 91.9 °F 90.3 °F 55.9 °F 30% 29.93 in 10.0 mi WNW 16.1 mph 24.2 mph N/A   Clear
5:55 PM 91.0 °F 89.2 °F 55.6 °F 30% 29.93 in 10.0 mi WNW 16.1 mph - N/A   Clear
6:15 PM 91.8 °F 90.3 °F 56.7 °F 31% 29.92 in 10.0 mi NW 13.8 mph 18.4 mph N/A   Clear
6:35 PM 90.1 °F 88.6 °F 56.5 °F 32% 29.91 in 10.0 mi WNW 12.7 mph - N/A   Clear
6:55 PM 90.7 °F 89.0 °F 55.9 °F 31% 29.91 in 10.0 mi WNW 15.0 mph 18.4 mph N/A   Clear
7:15 PM 90.1 °F 88.1 °F 55.0 °F 30% 29.91 in 10.0 mi WNW 9.2 mph - N/A   Clear
7:35 PM 90.7 °F 88.7 °F 54.9 °F 30% 29.92 in 10.0 mi Calm Calm - N/A   Clear
7:55 PM 91.0 °F 88.9 °F 54.5 °F 29% 29.91 in 10.0 mi Calm Calm - N/A   Clear
8:15 PM 91.2 °F 88.9 °F 53.4 °F 28% 29.92 in 10.0 mi WNW 4.6 mph - N/A   Clear
8:35 PM 90.1 °F 87.9 °F 54.1 °F 29% 29.93 in 10.0 mi Calm Calm - N/A   Scattered Clouds
8:55 PM 89.8 °F 87.7 °F 54.9 °F 30% 29.93 in 7.0 mi SSE 9.2 mph - N/A   Scattered Clouds
9:15 PM 88.7 °F - 52.5 °F 29% 29.93 in 10.0 mi Calm Calm - N/A   Clear
9:35 PM 87.4 °F - 51.4 °F 29% 29.92 in 10.0 mi Calm Calm - N/A   Clear
9:55 PM 86.5 °F - 51.6 °F 30% 29.93 in 7.0 mi Calm Calm - N/A   Clear
10:15 PM 86.0 °F - 52.0 °F 31% 29.93 in 10.0 mi Calm Calm - N/A   Clear
10:35 PM 85.5 °F - 52.7 °F 32% 29.94 in 10.0 mi Calm Calm - N/A   Clear
10:55 PM 84.7 °F 83.1 °F 53.2 °F 34% 29.95 in 10.0 mi Calm Calm - N/A   Clear
11:15 PM 84.9 °F 83.2 °F 53.1 °F 33% 29.96 in 10.0 mi Calm Calm - N/A   Clear
11:35 PM 84.9 °F - 52.2 °F 32% 29.96 in 10.0 mi Calm Calm - N/A   Clear
11:55 PM 83.3 °F 82.2 °F 54.3 °F 37% 29.96 in 10.0 mi Calm Calm - N/A   Clear